CW8721 Weather Reports


Display with metric or nautical units.
time (UTC)temp
F
wind
direction
speed
MPH
gust
MPH
rain 1hr
in
rain 24hr
in
rain mn
in
humidity
%
barometer
mb
20260506141055 48 331 3.0 6.0 0.00 0.11 0.11 60 1014.3
20260506140555 47 360 3.0 6.0 0.00 0.11 0.11 62 1014.2
20260506140055 47 315 2.0 4.0 0.00 0.11 0.11 64 1014.3
20260506135554 46 16 0.0 4.0 0.00 0.11 0.11 65 1014.1
20260506135053 45 16 1.0 4.0 0.00 0.11 0.11 66 1014.2
20260506134552 45 46 1.0 3.0 0.00 0.11 0.11 67 1014.1
20260506134052 44 46 1.0 3.0 0.00 0.11 0.11 69 1014.1
20260506133549 44 300 0.0 3.0 0.00 0.11 0.11 70 1014.0
20260506133104 44 300 1.0 7.0 0.00 0.11 0.11 71 1014.0
20260506132546 44 300 1.0 7.0 0.00 0.11 0.11 71 1013.9
20260506132046 44 322 0.0 5.0 0.00 0.11 0.11 72 1013.8
20260506131547 43 360 2.0 5.0 0.00 0.11 0.11 73 1013.7
20260506131044 42 134 0.0 1.0 0.00 0.11 0.11 73 1013.5
20260506130544 42 134 0.0 1.0 0.00 0.11 0.11 73 1013.4
20260506130043 43 360 0.0 1.0 0.00 0.11 0.11 72 1013.3
20260506125542 42 133 0.0 1.0 0.00 0.11 0.11 72 1012.9
20260506125041 42 132 0.0 2.0 0.00 0.11 0.11 71 1012.9
20260506124541 42 132 0.0 2.0 0.00 0.11 0.11 70 1012.9
20260506124042 43 132 0.0 0.0 0.00 0.11 0.11 69 1012.8
20260506123542 44 132 0.0 0.0 0.00 0.11 0.11 68 1012.7
20260506123040 45 132 0.0 0.0 0.00 0.11 0.11 67 1012.6
20260506122540 45 132 0.0 0.0 0.00 0.11 0.11 67 1012.6
20260506122040 44 132 0.0 0.0 0.00 0.11 0.11 67 1012.6
20260506121537 44 132 0.0 0.0 0.00 0.11 0.11 66 1012.6
20260506121037 45 132 0.0 1.0 0.00 0.11 0.11 65 1012.6
20260506120537 45 132 0.0 2.0 0.00 0.11 0.11 65 1012.4
20260506120052 45 132 0.0 2.0 0.00 0.11 0.11 66 1012.3
20260506115536 45 132 0.0 0.0 0.00 0.11 0.11 66 1012.3
20260506115035 45 132 0.0 0.0 0.00 0.11 0.11 67 1012.4
20260506114535 45 132 0.0 0.0 0.00 0.11 0.11 67 1012.3
20260506114035 44 132 0.0 0.0 0.00 0.11 0.11 66 1012.3
20260506113534 44 131 0.0 1.0 0.00 0.11 0.11 67 1012.2
20260506113034 44 131 0.0 1.0 0.00 0.11 0.11 68 1012.2
20260506112536 44 131 0.0 0.0 0.00 0.11 0.11 68 1012.3
20260506112033 44 131 0.0 3.0 0.00 0.11 0.11 68 1012.2
20260506111533 43 131 0.0 5.0 0.00 0.11 0.11 68 1012.0
20260506111033 43 136 1.0 5.0 0.00 0.11 0.11 68 1012.0
20260506110533 43 82 0.0 9.0 0.00 0.11 0.11 68 1012.2
20260506110032 44 98 2.0 9.0 0.00 0.11 0.11 68 1012.1
20260506105534 44 136 4.0 9.0 0.00 0.11 0.11 68 1011.9
20260506105031 44 53 3.0 14.0 0.00 0.11 0.11 67 1012.0
20260506104539 44 360 6.0 14.0 0.00 0.11 0.11 68 1012.0
20260506104030 44 88 5.0 16.0 0.00 0.11 0.11 68 1012.0
20260506103529 44 360 7.0 16.0 0.00 0.11 0.11 70 1012.0
20260506103039 43 123 6.0 15.0 0.00 0.11 0.11 71 1011.9
20260506102531 43 66 4.0 12.0 0.00 0.11 0.11 73 1011.8
20260506102027 43 59 3.0 12.0 0.00 0.11 0.11 74 1011.9
20260506101527 43 41 3.0 12.0 0.00 0.11 0.11 74 1011.7
20260506101026 43 59 5.0 16.0 0.00 0.11 0.11 76 1011.7
20260506100525 43 98 2.0 16.0 0.00 0.11 0.11 77 1011.4
20260506100023 43 70 5.0 15.0 0.00 0.11 0.11 78 1011.2
20260506095523 43 82 4.0 12.0 0.00 0.11 0.11 79 1011.1
20260506095025 42 80 2.0 9.0 0.01 0.11 0.11 80 1010.9
20260506094521 42 82 2.0 12.0 0.01 0.11 0.11 80 1010.7
20260506094019 42 80 4.0 12.0 0.02 0.11 0.11 81 1010.6
20260506093518 42 78 1.0 11.0 0.03 0.11 0.11 80 1010.4
20260506093021 42 148 3.0 11.0 0.05 0.11 0.11 81 1010.5
20260506092518 42 115 2.0 9.0 0.07 0.11 0.11 81 1010.4
20260506092016 42 71 3.0 9.0 0.11 0.11 0.11 81 1010.4
20260506091517 42 100 1.0 9.0 0.11 0.11 0.11 81 1010.2
20260506091014 42 67 3.0 11.0 0.11 0.11 0.11 80 1010.0
20260506090513 43 82 2.0 13.0 0.11 0.11 0.11 80 1010.0
20260506090011 43 115 2.0 10.0 0.11 0.11 0.11 79 1009.8
20260506085509 43 122 3.0 14.0 0.11 0.11 0.11 78 1009.7
20260506085008 44 104 3.0 13.0 0.10 0.10 0.10 77 1009.7
20260506084509 44 50 2.0 11.0 0.10 0.10 0.10 76 1009.6
20260506084010 45 360 3.0 12.0 0.09 0.09 0.09 74 1009.4
20260506083505 47 360 3.0 11.0 0.07 0.07 0.07 73 1009.3
20260506083003 48 36 4.0 15.0 0.05 0.05 0.05 71 1008.8
20260506082502 51 45 7.0 16.0 0.03 0.03 0.03 70 1008.4
20260506082100 52 72 10.0 16.0 0.00 0.00 0.00 70 1008.3
20260506081601 52 52 3.0 5.0 0.00 0.00 0.00 71 1007.6
20260506081057 52 144 0.0 3.0 0.00 0.00 0.00 70 1006.7
20260506080559 52 121 0.0 6.0 0.00 0.00 0.00 70 1006.7
20260506080104 52 109 0.0 6.0 0.00 0.00 0.00 69 1006.7
20260506073054 53 118 0.0 7.0 0.00 0.00 0.00 68 1006.7
20260506072554 53 94 1.0 7.0 0.00 0.00 0.00 68 1006.7
20260506072053 53 112 0.0 3.0 0.00 0.00 0.00 67 1006.6
20260506071551 53 114 0.0 4.0 0.00 0.00 0.00 67 1006.8
20260506071051 53 155 0.0 4.0 0.00 0.00 0.00 67 1006.8
20260506070552 53 100 0.0 4.0 0.00 0.00 0.00 67 1006.8
20260506062042 55 232 0.0 3.0 0.00 0.00 0.00 56 1006.3
20260506061540 55 230 0.0 2.0 0.00 0.00 0.00 56 1006.1
20260506061039 55 227 0.0 8.0 0.00 0.00 0.00 56 1006.0
20260506060537 55 242 1.0 8.0 0.00 0.00 0.00 57 1006.0
20260506051033 54 331 1.0 5.0 0.00 0.00 0.00 60 1005.6
20260506050533 55 347 0.0 3.0 0.00 0.00 0.00 60 1005.6
20260506045030 56 274 2.0 6.0 0.00 0.00 0.00 52 1005.4
20260506044536 56 155 0.0 2.0 0.00 0.00 0.00 52 1005.0
20260506044030 56 155 0.0 2.0 0.00 0.00 0.00 52 1005.0
20260506043533 56 150 0.0 3.0 0.00 0.00 0.00 52 1004.9
20260506043028 55 207 0.0 3.0 0.00 0.00 0.00 52 1004.8
20260506042529 55 164 1.0 3.0 0.00 0.00 0.00 52 1004.7
20260506042029 56 171 1.0 4.0 0.00 0.00 0.00 52 1004.8
20260506041529 55 163 0.0 5.0 0.00 0.00 0.00 52 1004.7
20260506041026 55 182 1.0 5.0 0.00 0.00 0.00 52 1004.7
20260506040531 56 167 0.0 3.0 0.00 0.00 0.00 52 1004.5
20260506040033 56 158 1.0 3.0 0.00 0.00 0.00 52 1004.6
20260506035527 56 168 1.0 3.0 0.00 0.00 0.00 51 1004.6
20260506035027 56 140 0.0 5.0 0.00 0.00 0.00 51 1004.4
20260506034526 56 151 1.0 5.0 0.00 0.00 0.00 52 1004.5
20260506034027 56 155 1.0 5.0 0.00 0.00 0.00 51 1004.4
20260506033525 56 132 0.0 3.0 0.00 0.00 0.00 52 1004.3
20260506033025 56 142 0.0 3.0 0.00 0.00 0.00 51 1004.4
20260506032525 56 166 0.0 3.0 0.00 0.00 0.00 51 1004.4
20260506032025 56 156 1.0 3.0 0.00 0.00 0.00 51 1004.1
20260506031525 56 166 0.0 3.0 0.00 0.00 0.00 51 1004.1
20260506031025 56 107 1.0 6.0 0.00 0.00 0.00 50 1004.1
20260506030524 56 162 1.0 7.0 0.00 0.00 0.00 50 1004.1
20260506030026 57 172 2.0 7.0 0.00 0.00 0.00 50 1004.0
20260506025524 57 147 0.0 5.0 0.00 0.00 0.00 50 1004.1
20260506025028 57 151 1.0 3.0 0.00 0.00 0.00 49 1004.1
20260506024524 57 167 0.0 4.0 0.00 0.00 0.00 49 1003.9
20260506024024 58 150 0.0 3.0 0.00 0.00 0.00 48 1003.9
20260506023524 58 175 0.0 5.0 0.00 0.00 0.00 48 1003.8
20260506023040 58 153 1.0 5.0 0.00 0.00 0.00 48 1003.7
20260506022523 58 184 0.0 3.0 0.00 0.00 0.00 48 1003.6
20260506022027 59 159 0.0 3.0 0.00 0.00 0.00 47 1003.6
20260506021533 59 148 0.0 3.0 0.00 0.00 0.00 48 1003.6
20260506021025 59 165 0.0 3.0 0.00 0.00 0.00 47 1003.4
20260506020524 59 161 1.0 5.0 0.00 0.00 0.00 47 1003.3
20260506020026 60 136 0.0 2.0 0.00 0.00 0.00 47 1003.2
20260506015525 60 184 0.0 5.0 0.00 0.00 0.00 48 1003.3
20260506015026 60 150 1.0 7.0 0.00 0.00 0.00 47 1003.3
20260506014522 60 175 1.0 7.0 0.00 0.00 0.00 46 1003.3
20260506014022 60 187 1.0 3.0 0.00 0.00 0.00 47 1003.3
20260506013522 60 138 0.0 6.0 0.00 0.00 0.00 47 1003.3
20260506013030 60 147 0.0 6.0 0.00 0.00 0.00 46 1003.3
20260506012522 60 144 1.0 6.0 0.00 0.00 0.00 46 1003.3
20260506012022 60 165 1.0 6.0 0.00 0.00 0.00 46 1003.3
20260506011521 60 147 1.0 5.0 0.00 0.00 0.00 46 1003.3
20260506011021 60 140 1.0 5.0 0.00 0.00 0.00 47 1003.3
20260506010521 60 166 1.0 4.0 0.00 0.00 0.00 46 1003.3
20260506010021 60 169 0.0 3.0 0.00 0.00 0.00 47 1003.3
20260506005521 60 163 0.0 2.0 0.00 0.00 0.00 46 1003.3
20260506005022 60 162 1.0 5.0 0.00 0.00 0.00 46 1003.3
20260506004525 60 142 0.0 4.0 0.00 0.00 0.00 46 1003.3
20260506004021 60 141 0.0 4.0 0.00 0.00 0.00 46 1003.3
20260506003520 60 161 0.0 2.0 0.00 0.00 0.00 47 1003.3
20260506003020 60 158 1.0 2.0 0.00 0.00 0.00 46 1003.3
20260506002519 60 157 1.0 4.0 0.00 0.00 0.00 46 1003.4
20260506002022 60 159 0.0 4.0 0.00 0.00 0.00 47 1003.4
20260506001518 60 153 1.0 3.0 0.00 0.00 0.00 46 1003.4
20260506001018 60 169 1.0 3.0 0.00 0.00 0.00 45 1003.4
20260506000517 60 131 0.0 4.0 0.00 0.00 0.00 45 1003.4
20260506000017 60 159 1.0 2.0 0.00 0.00 0.00 45 1003.4
20260505235517 60 159 0.0 5.0 0.00 0.00 0.00 46 1003.5
20260505235017 60 186 1.0 5.0 0.00 0.00 0.00 46 1003.5
20260505234517 60 142 0.0 7.0 0.00 0.00 0.00 47 1003.5
20260505234016 60 154 0.0 7.0 0.00 0.00 0.00 47 1003.5
20260505233516 60 140 0.0 5.0 0.00 0.00 0.00 48 1003.5
20260505233015 59 135 0.0 7.0 0.00 0.00 0.00 49 1003.6
20260505232515 60 111 2.0 7.0 0.00 0.00 0.00 49 1003.6
20260505232017 59 164 1.0 4.0 0.00 0.00 0.00 49 1003.6
20260505231532 59 123 1.0 4.0 0.00 0.00 0.00 48 1003.6
20260505231016 59 108 1.0 8.0 0.00 0.00 0.00 50 1003.7
20260505230513 58 95 1.0 6.0 0.00 0.00 0.00 51 1003.7
20260505230022 58 163 0.0 4.0 0.00 0.00 0.00 51 1003.8
20260505225513 58 164 1.0 4.0 0.00 0.00 0.00 51 1003.8
20260505225013 58 189 1.0 3.0 0.00 0.00 0.00 52 1003.8
20260505224514 58 83 0.0 4.0 0.00 0.00 0.00 52 1003.8
20260505224013 58 187 0.0 5.0 0.00 0.00 0.00 51 1003.9
20260505223513 58 150 0.0 5.0 0.00 0.00 0.00 56 1004.0
20260505223012 57 165 0.0 3.0 0.00 0.00 0.00 53 1004.0
20260505222517 57 164 1.0 6.0 0.00 0.00 0.00 57 1004.0
20260505222012 56 139 0.0 5.0 0.00 0.00 0.00 60 1004.0
20260505221511 55 169 1.0 3.0 0.00 0.00 0.00 61 1004.0
20260505221011 55 156 1.0 3.0 0.00 0.00 0.00 64 1004.0
20260505220512 54 167 0.0 9.0 0.00 0.00 0.00 65 1004.1
20260505220010 54 114 3.0 9.0 0.00 0.00 0.00 64 1004.1
20260505215510 55 117 1.0 9.0 0.00 0.00 0.00 62 1004.2
20260505215010 56 120 4.0 9.0 0.00 0.00 0.00 59 1004.4
20260505214510 57 145 0.0 4.0 0.00 0.00 0.00 58 1004.4
20260505214013 57 121 0.0 7.0 0.00 0.00 0.00 56 1004.4
20260505213510 57 119 0.0 4.0 0.00 0.00 0.00 53 1004.5
20260505213016 57 142 1.0 9.0 0.00 0.00 0.00 48 1004.6
20260505212509 58 157 1.0 9.0 0.00 0.00 0.00 49 1004.7
20260505212009 57 150 0.0 3.0 0.00 0.00 0.00 48 1004.7
20260505211511 57 165 0.0 4.0 0.00 0.00 0.00 48 1004.6
20260505211008 57 165 0.0 4.0 0.00 0.00 0.00 48 1004.5
20260505210508 57 150 0.0 5.0 0.00 0.00 0.00 49 1004.4
20260505210011 57 148 0.0 3.0 0.00 0.00 0.00 47 1004.2
20260505205509 57 163 0.0 7.0 0.00 0.00 0.00 47 1004.2
20260505205008 58 146 1.0 7.0 0.00 0.00 0.00 48 1004.2
20260505204506 58 121 0.0 4.0 0.00 0.00 0.00 48 1004.2
20260505204004 58 142 1.0 6.0 0.00 0.00 0.00 48 1004.1
20260505203505 57 137 2.0 6.0 0.00 0.00 0.00 49 1004.1
20260505203003 57 167 1.0 5.0 0.00 0.00 0.00 49 1004.1
20260505202503 57 145 2.0 8.0 0.00 0.00 0.00 49 1004.1
20260505202004 57 155 1.0 8.0 0.00 0.00 0.00 49 1004.2
20260505201501 57 180 1.0 5.0 0.00 0.00 0.00 49 1004.1
20260505201001 57 165 2.0 6.0 0.00 0.00 0.00 49 1004.1
20260505200501 57 190 1.0 6.0 0.00 0.00 0.00 49 1004.1
20260505200100 57 153 1.0 6.0 0.00 0.00 0.00 50 1004.0
20260505195602 56 158 2.0 7.0 0.00 0.00 0.00 50 1004.0
20260505195103 56 149 2.0 6.0 0.00 0.00 0.00 50 1004.0
20260505194559 57 155 2.0 7.0 0.00 0.00 0.00 50 1004.0
20260505194101 57 186 1.0 6.0 0.00 0.00 0.00 50 1004.0
20260505193601 57 164 2.0 5.0 0.00 0.00 0.00 50 1004.0
20260505193059 56 159 1.0 7.0 0.00 0.00 0.00 51 1003.9
20260505192602 56 146 1.0 8.0 0.00 0.00 0.00 52 1004.0
20260505192059 56 126 3.0 9.0 0.00 0.00 0.00 51 1004.0
20260505191611 56 203 3.0 9.0 0.00 0.00 0.00 50 1004.0
20260505191057 56 161 3.0 9.0 0.00 0.00 0.00 50 1004.0
20260505190557 56 165 2.0 9.0 0.00 0.00 0.00 51 1003.8
20260505190056 56 157 3.0 10.0 0.00 0.00 0.00 52 1003.9
20260505185555 56 147 2.0 10.0 0.00 0.00 0.00 53 1003.9
20260505185055 55 144 2.0 9.0 0.00 0.00 0.00 53 1003.9
20260505184555 55 174 3.0 11.0 0.00 0.00 0.00 52 1003.8
20260505184055 55 132 4.0 11.0 0.00 0.00 0.00 52 1003.8
20260505183555 56 161 2.0 9.0 0.00 0.00 0.00 53 1003.8
20260505183055 56 159 4.0 10.0 0.00 0.00 0.00 52 1003.7
20260505182554 56 199 2.0 10.0 0.00 0.00 0.00 53 1003.7
20260505182054 56 167 2.0 6.0 0.00 0.00 0.00 54 1003.6
20260505181554 56 122 3.0 8.0 0.00 0.00 0.00 53 1003.7
20260505181053 55 170 3.0 11.0 0.00 0.00 0.00 53 1003.7
20260505180552 55 166 3.0 11.0 0.00 0.00 0.00 54 1003.6
20260505180058 55 46 2.0 6.0 0.00 0.00 0.00 55 1003.5
20260505175552 55 166 3.0 9.0 0.00 0.00 0.00 55 1003.4
20260505175054 55 153 4.0 9.0 0.00 0.00 0.00 55 1003.6
20260505174550 54 134 2.0 12.0 0.00 0.00 0.00 55 1003.7
20260505174049 54 195 4.0 12.0 0.00 0.00 0.00 56 1003.8
20260505173549 54 159 4.0 10.0 0.00 0.00 0.00 56 1003.6
20260505173054 54 130 3.0 11.0 0.00 0.00 0.00 56 1003.6
20260505172548 53 203 4.0 12.0 0.00 0.00 0.00 57 1003.5
20260505172046 53 168 6.0 12.0 0.00 0.00 0.00 56 1003.6
20260505171548 53 177 4.0 12.0 0.00 0.00 0.00 56 1003.4
20260505171046 53 149 6.0 12.0 0.00 0.00 0.00 56 1003.3
20260505170545 53 147 4.0 12.0 0.00 0.00 0.00 57 1003.4
20260505165543 53 167 5.0 12.0 0.00 0.00 0.00 57 1003.3
20260505165045 53 136 4.0 12.0 0.00 0.00 0.00 56 1003.1
20260505164543 53 150 4.0 12.0 0.00 0.00 0.00 57 1003.1
20260505164042 54 166 6.0 13.0 0.00 0.00 0.00 57 1003.0
20260505163541 54 190 5.0 13.0 0.00 0.00 0.00 57 1003.0
20260505163042 54 185 4.0 12.0 0.00 0.00 0.00 58 1003.0
20260505162539 54 169 5.0 12.0 0.00 0.00 0.00 57 1003.0
20260505162038 54 206 5.0 10.0 0.00 0.00 0.00 57 1003.0
20260505161539 54 170 3.0 7.0 0.00 0.00 0.00 57 1003.0
20260505161036 54 161 2.0 10.0 0.00 0.00 0.00 57 1002.9
20260505160537 54 177 4.0 14.0 0.00 0.00 0.00 57 1002.8
20260505153029 55 167 3.0 6.0 0.00 0.00 0.00 55 1002.6
20260505152529 55 155 1.0 6.0 0.00 0.00 0.00 54 1002.6
20260505152027 55 167 4.0 10.0 0.00 0.00 0.00 52 1002.6
20260505151527 55 149 3.0 10.0 0.00 0.00 0.00 52 1002.6
20260505151026 55 162 3.0 9.0 0.00 0.00 0.00 52 1002.5
20260505150527 55 171 2.0 9.0 0.00 0.00 0.00 52 1002.6